EW7869 Weather Reports


time (UTC)temp
F
wind
direction
speed
knots
gust
knots
rain 1hr
in
rain 24hr
in
rain mn
in
humidity
%
barometer
mb
20200922210021 69 130 0.0 1.7 0.00 0.01 0.01 61 1019.8
20200922205512 69 203 0.0 1.7 0.00 0.01 0.01 60 1020.0
20200922205011 69 203 0.0 0.9 0.00 0.01 0.01 60 1020.2
20200922204517 69 204 0.0 0.0 0.00 0.01 0.01 62 1020.3
20200922204012 69 184 0.0 0.9 0.00 0.01 0.01 62 1020.3
20200922203512 69 207 0.0 1.7 0.00 0.01 0.01 60 1020.4
20200922203022 69 207 0.0 2.6 0.00 0.01 0.01 62 1020.4
20200922202500 69 208 0.0 2.6 0.00 0.01 0.01 60 1020.5
20200922202000 69 208 0.9 2.6 0.00 0.01 0.01 62 1020.5
20200922201448 69 210 0.9 2.6 0.00 0.01 0.01 60 1020.6
20200922200947 69 203 0.9 1.7 0.00 0.01 0.01 62 1020.6
20200922200447 69 139 0.9 1.7 0.00 0.01 0.01 63 1020.8
20200922195947 69 107 0.0 1.7 0.00 0.01 0.01 64 1020.8
20200922195449 69 199 0.0 0.9 0.00 0.01 0.01 64 1020.9
20200922194945 69 200 0.0 0.0 0.00 0.01 0.01 63 1021.0
20200922194444 69 198 0.0 1.7 0.00 0.01 0.01 63 1021.1
20200922193946 69 199 0.0 1.7 0.00 0.01 0.01 62 1021.1
20200922193440 69 192 0.0 1.7 0.00 0.01 0.01 65 1021.0
20200922192940 69 113 0.9 1.7 0.00 0.01 0.01 65 1021.0
20200922192441 69 112 0.0 1.7 0.00 0.01 0.01 63 1021.0
20200922191942 69 200 0.0 0.0 0.00 0.01 0.01 62 1021.1
20200922191442 69 200 0.0 0.0 0.00 0.01 0.01 64 1021.3
20200922190945 69 200 0.0 0.0 0.00 0.01 0.01 65 1021.4
20200922190438 69 199 0.0 1.7 0.00 0.01 0.01 63 1021.5
20200922185938 69 201 0.0 1.7 0.00 0.01 0.01 61 1021.6
20200922185439 69 201 0.0 1.7 0.00 0.01 0.01 61 1021.7
20200922184940 70 201 0.0 1.7 0.00 0.01 0.01 61 1021.7
20200922184439 70 156 0.9 2.6 0.00 0.01 0.01 62 1021.8
20200922183941 69 163 0.9 2.6 0.00 0.01 0.01 60 1021.9
20200922183440 70 96 0.0 1.7 0.00 0.01 0.01 60 1022.0
20200922182934 70 94 0.9 5.2 0.00 0.01 0.01 60 1022.1
20200922182439 70 89 0.9 5.2 0.00 0.01 0.01 59 1022.2
20200922181936 71 203 0.0 1.7 0.00 0.01 0.01 60 1022.3
20200922181438 71 202 0.0 1.7 0.00 0.01 0.01 57 1022.3
20200922180928 71 196 0.0 1.7 0.00 0.01 0.01 61 1022.4
20200922180430 70 196 0.0 2.6 0.00 0.01 0.01 62 1022.5
20200922175927 70 190 0.0 2.6 0.00 0.01 0.01 60 1022.5
20200922175426 69 143 0.9 1.7 0.00 0.01 0.01 61 1022.6
20200922174924 69 204 0.9 2.6 0.00 0.01 0.01 61 1022.7
20200922174419 69 205 0.0 2.6 0.00 0.01 0.01 60 1022.8
20200922173914 69 202 0.0 1.7 0.00 0.01 0.01 64 1022.9
20200922173410 69 148 0.9 2.6 0.00 0.01 0.01 64 1023.0
20200922172911 69 205 0.0 2.6 0.00 0.01 0.01 62 1023.1
20200922172410 69 192 0.0 0.0 0.00 0.01 0.01 64 1023.2
20200922171909 69 205 0.9 3.5 0.00 0.01 0.01 64 1023.2
20200922171404 70 208 0.9 3.5 0.00 0.01 0.01 61 1023.4
20200922170904 69 204 0.0 1.7 0.00 0.01 0.01 63 1023.4
20200922170407 69 200 0.0 0.9 0.00 0.01 0.01 64 1023.4
20200922165902 68 187 0.0 0.0 0.00 0.01 0.01 64 1023.4
20200922165359 68 195 0.0 0.9 0.00 0.01 0.01 66 1023.5
20200922164859 67 199 0.0 1.7 0.00 0.01 0.01 65 1023.5
20200922164354 67 152 0.0 1.7 0.00 0.01 0.01 65 1023.5
20200922163857 67 150 0.0 2.6 0.00 0.01 0.01 68 1023.6
20200922163356 67 187 0.9 2.6 0.00 0.01 0.01 68 1023.6
20200922162859 66 198 0.9 2.6 0.00 0.01 0.01 67 1023.7
20200922162354 66 190 0.0 1.7 0.00 0.01 0.01 66 1023.7
20200922161850 66 195 0.0 1.7 0.00 0.01 0.01 67 1023.9
20200922161351 66 200 0.0 1.7 0.00 0.01 0.01 67 1024.0
20200922160848 66 199 0.0 2.6 0.00 0.01 0.01 69 1024.0
20200922160349 66 199 0.9 4.3 0.00 0.01 0.01 67 1024.0
20200922155849 66 198 0.0 4.3 0.00 0.01 0.01 68 1024.1
20200922155345 66 199 0.0 3.5 0.00 0.01 0.01 68 1024.1
20200922154852 65 198 0.9 3.5 0.00 0.01 0.01 67 1024.1
20200922154346 65 179 0.0 1.7 0.00 0.01 0.01 70 1024.2
20200922153842 64 189 0.0 1.7 0.00 0.01 0.01 70 1024.4
20200922153343 64 187 0.0 1.7 0.00 0.01 0.01 71 1024.3
20200922152841 63 174 0.0 1.7 0.00 0.01 0.01 79 1024.2
20200922152340 62 137 0.0 0.9 0.00 0.01 0.01 78 1024.3
20200922151839 62 136 0.0 0.0 0.00 0.01 0.01 81 1024.4
20200922151342 62 134 0.0 0.9 0.00 0.01 0.01 82 1024.4
20200922150842 61 134 0.0 0.9 0.00 0.01 0.01 84 1024.5
20200922150331 60 103 0.0 0.9 0.00 0.01 0.01 87 1024.5
20200922145829 60 123 0.0 1.7 0.00 0.01 0.01 87 1024.6
20200922145327 59 124 0.0 1.7 0.00 0.01 0.01 86 1024.6
20200922144824 59 157 0.0 0.0 0.00 0.01 0.01 90 1024.6
20200922144322 58 157 0.0 0.0 0.00 0.01 0.01 92 1024.6
20200922143824 58 157 0.0 0.0 0.00 0.01 0.01 92 1024.6
20200922143323 58 120 0.0 0.0 0.00 0.01 0.01 92 1024.5
20200922142822 57 130 0.0 0.0 0.00 0.01 0.01 94 1024.5
20200922142322 57 145 0.0 0.9 0.00 0.01 0.01 96 1024.5
20200922141822 56 155 0.0 0.9 0.00 0.01 0.01 96 1024.5
20200922141313 56 165 0.0 0.0 0.00 0.01 0.01 97 1024.4
20200922140812 56 165 0.0 0.0 0.00 0.01 0.01 97 1024.5
20200922140313 56 165 0.0 0.0 0.00 0.01 0.01 97 1024.5
20200922135811 56 165 0.0 0.0 0.00 0.01 0.01 97 1024.4
20200922135306 55 165 0.0 0.0 0.00 0.01 0.01 97 1024.4
20200922134804 55 165 0.0 0.0 0.00 0.01 0.01 97 1024.4
20200922134305 54 165 0.0 0.0 0.00 0.01 0.01 97 1024.3
20200922133806 54 165 0.0 0.0 0.00 0.01 0.01 97 1024.3
20200922133308 53 165 0.0 0.0 0.00 0.01 0.01 97 1024.2
20200922132806 53 165 0.0 0.0 0.00 0.01 0.01 97 1024.2
20200922132258 53 165 0.0 0.0 0.00 0.01 0.01 97 1024.1
20200922131755 53 165 0.0 0.0 0.00 0.01 0.01 97 1024.1
20200922131253 53 165 0.0 0.0 0.00 0.01 0.01 97 1024.1
20200922130751 53 165 0.0 0.0 0.00 0.01 0.01 98 1024.0
20200922130254 52 165 0.0 0.0 0.00 0.01 0.01 98 1024.0
20200922125750 52 165 0.0 0.0 0.00 0.01 0.01 97 1024.0
20200922125248 52 165 0.0 0.0 0.00 0.01 0.01 97 1023.9
20200922124748 51 165 0.0 0.0 0.00 0.01 0.01 97 1023.8
20200922124247 51 165 0.0 0.0 0.00 0.01 0.01 97 1023.9
20200922123746 51 165 0.0 0.0 0.00 0.01 0.01 98 1023.8
20200922123245 51 165 0.0 0.0 0.00 0.01 0.01 98 1023.8
20200922122741 51 165 0.0 0.0 0.00 0.01 0.01 98 1023.8
20200922122258 51 165 0.0 0.0 0.00 0.01 0.01 98 1023.7
20200922121735 51 165 0.0 0.0 0.00 0.01 0.01 98 1023.8
20200922121233 51 165 0.0 0.0 0.00 0.01 0.01 98 1023.8
20200922120733 50 165 0.0 0.0 0.00 0.01 0.01 98 1023.7
20200922120226 50 165 0.0 0.0 0.00 0.01 0.01 98 1023.6
20200922115727 50 165 0.0 0.0 0.00 0.01 0.01 98 1023.6
20200922115228 50 165 0.0 0.0 0.01 0.01 0.01 97 1023.5
20200922114725 50 165 0.0 0.0 0.01 0.01 0.01 98 1023.4
20200922114225 50 165 0.0 0.0 0.01 0.01 0.01 98 1023.4
20200922113725 50 165 0.0 0.0 0.01 0.01 0.01 98 1023.5
20200922113225 50 165 0.0 0.0 0.01 0.01 0.01 98 1023.5
20200922112720 50 165 0.0 0.0 0.01 0.01 0.01 97 1023.4
20200922112222 50 165 0.0 0.0 0.01 0.01 0.01 97 1023.4
20200922111721 50 165 0.0 0.0 0.01 0.01 0.01 97 1023.4
20200922111219 50 165 0.0 0.0 0.01 0.01 0.01 97 1023.3
20200922110718 50 165 0.0 0.0 0.01 0.01 0.01 97 1023.3
20200922110218 50 165 0.0 0.0 0.01 0.01 0.01 97 1023.2
20200922105716 50 165 0.0 0.0 0.01 0.01 0.01 97 1023.2
20200922105215 50 165 0.0 0.0 0.00 0.00 0.00 97 1023.2
20200922104714 50 165 0.0 0.0 0.00 0.00 0.00 97 1023.2
20200922104216 50 165 0.0 0.0 0.00 0.00 0.00 97 1023.2
20200922103711 50 165 0.0 0.0 0.00 0.00 0.00 97 1023.1
20200922103214 50 165 0.0 0.0 0.00 0.00 0.00 97 1023.1
20200922102712 50 165 0.0 0.0 0.00 0.00 0.00 97 1023.1
20200922102207 50 165 0.0 0.0 0.00 0.00 0.00 97 1023.1
20200922101703 50 165 0.0 0.0 0.00 0.00 0.00 97 1023.1
20200922101201 50 165 0.0 0.0 0.00 0.00 0.00 97 1023.0
20200922100707 51 165 0.0 0.0 0.00 0.00 0.00 97 1023.0
20200922100155 51 165 0.0 0.0 0.00 0.00 0.00 97 1023.0
20200922095652 51 165 0.0 0.0 0.00 0.00 0.00 97 1023.0
20200922095152 51 165 0.0 0.0 0.00 0.00 0.00 97 1023.0
20200922094648 51 165 0.0 0.0 0.00 0.00 0.00 97 1022.9
20200922094154 51 165 0.0 0.0 0.00 0.00 0.00 97 1022.9
20200922093647 51 165 0.0 0.0 0.00 0.00 0.00 97 1022.9
20200922093144 51 165 0.0 0.0 0.00 0.00 0.00 97 1022.9
20200922092645 51 165 0.0 0.0 0.00 0.00 0.00 97 1022.9
20200922092145 52 165 0.0 0.0 0.00 0.00 0.00 97 1022.9
20200922091642 52 165 0.0 0.0 0.00 0.00 0.00 97 1022.8
20200922091140 51 165 0.0 0.0 0.00 0.00 0.00 97 1022.8
20200922090641 51 165 0.0 0.0 0.00 0.00 0.00 97 1022.8
20200922090143 51 165 0.0 0.0 0.00 0.00 0.00 97 1022.9
20200922085641 51 165 0.0 0.0 0.00 0.00 0.00 97 1022.9
20200922085146 51 165 0.0 0.0 0.00 0.00 0.00 97 1022.9
20200922084643 51 165 0.0 0.0 0.00 0.00 0.00 97 1022.9
20200922084141 51 165 0.0 0.0 0.00 0.00 0.00 97 1022.9
20200922083639 51 165 0.0 0.0 0.00 0.00 0.00 97 1022.8
20200922083142 52 165 0.0 0.0 0.00 0.00 0.00 97 1022.8
20200922082641 51 165 0.0 0.0 0.00 0.00 0.00 97 1022.7
20200922082140 52 165 0.0 0.0 0.00 0.00 0.00 97 1022.7
20200922081638 52 165 0.0 0.0 0.00 0.00 0.00 97 1022.6
20200922081135 52 165 0.0 0.0 0.00 0.00 0.00 97 1022.6
20200922080634 52 165 0.0 0.0 0.00 0.00 0.00 97 1022.7
20200922080128 52 165 0.0 0.0 0.00 0.00 0.00 97 1022.7
20200922075633 52 165 0.0 0.0 0.00 0.00 0.00 97 1022.7
20200922075125 52 165 0.0 0.0 0.00 0.00 0.00 97 1022.7
20200922074624 52 165 0.0 0.0 0.00 0.00 0.00 97 1022.7
20200922074125 52 165 0.0 0.0 0.00 0.00 0.00 97 1022.7
20200922073621 52 165 0.0 0.0 0.00 0.00 0.00 97 1022.8
20200922073124 52 165 0.0 0.0 0.00 0.00 0.00 97 1022.8
20200922072620 52 165 0.0 0.0 0.00 0.00 0.00 97 1022.8
20200922072121 52 165 0.0 0.0 0.00 0.00 0.00 97 1022.8
20200922071619 52 165 0.0 0.0 0.00 0.00 0.00 97 1022.8
20200922071121 52 165 0.0 0.0 0.00 0.00 0.00 97 1022.8
20200922070615 52 165 0.0 0.0 0.00 0.00 0.00 97 1022.7
20200922070113 52 165 0.0 0.0 0.00 0.00 0.00 97 1022.6
20200922065610 52 165 0.0 0.0 0.00 0.00 0.00 97 1022.7
20200922065107 51 165 0.0 0.0 0.00 0.00 0.00 97 1022.7
20200922064609 51 165 0.0 0.0 0.00 0.00 0.00 97 1022.8
20200922064105 51 165 0.0 0.0 0.00 0.00 0.00 96 1022.8
20200922063601 51 165 0.0 0.0 0.00 0.00 0.00 96 1022.8
20200922063057 51 165 0.0 0.0 0.00 0.00 0.00 96 1022.8
20200922062554 51 165 0.0 0.0 0.00 0.00 0.00 96 1022.8
20200922062056 51 165 0.0 0.0 0.00 0.00 0.00 96 1022.8
20200922061548 51 165 0.0 0.0 0.00 0.00 0.00 96 1022.9
20200922061049 51 165 0.0 0.0 0.00 0.00 0.00 96 1023.0
20200922060545 52 165 0.0 0.0 0.00 0.00 0.00 96 1023.0
20200922060046 52 165 0.0 0.0 0.00 0.00 0.00 96 1023.0
20200922055547 52 165 0.0 0.0 0.00 0.00 0.00 96 1023.0
20200922055048 52 162 0.0 0.0 0.00 0.00 0.00 96 1023.0
20200922054545 52 162 0.0 0.0 0.00 0.00 0.00 96 1022.9
20200922054041 52 162 0.0 0.0 0.00 0.00 0.00 96 1022.8
20200922053538 52 162 0.0 0.0 0.00 0.00 0.00 96 1022.9
20200922053038 52 162 0.0 0.0 0.00 0.00 0.00 95 1023.0
20200922052537 52 162 0.0 0.0 0.00 0.00 0.00 96 1023.0
20200922052028 52 162 0.0 0.0 0.00 0.00 0.00 96 1023.0
20200922051526 53 162 0.0 0.0 0.00 0.00 0.00 96 1023.0
20200922051027 53 162 0.0 0.0 0.00 0.00 0.00 96 1023.0
20200922050525 53 162 0.0 0.0 0.00 0.00 0.00 95 1023.0
20200922050023 53 162 0.0 0.0 0.00 0.00 0.00 96 1023.1
20200922045521 53 162 0.0 0.0 0.00 0.00 0.00 96 1023.1
20200922045022 53 162 0.0 0.0 0.00 0.00 0.00 95 1023.1
20200922044522 54 162 0.0 0.0 0.00 0.00 0.00 96 1023.1
20200922044024 54 162 0.0 0.0 0.00 0.00 0.00 96 1023.2
20200922043522 54 162 0.0 0.0 0.00 0.00 0.00 95 1023.3
20200922043024 54 162 0.0 0.0 0.00 0.00 0.00 95 1023.2
20200922042517 54 162 0.0 0.0 0.00 0.00 0.00 95 1023.2
20200922042020 54 162 0.0 0.0 0.00 0.00 0.00 95 1023.2
20200922041518 54 162 0.0 0.0 0.00 0.00 0.00 95 1023.4
20200922041017 54 162 0.0 0.0 0.00 0.00 0.00 95 1023.4
20200922040519 54 162 0.0 0.0 0.00 0.00 0.00 95 1023.4
20200922040024 54 162 0.0 0.0 0.00 0.00 0.00 95 1023.5
20200922035514 54 162 0.0 0.0 0.00 0.00 0.00 95 1023.5
20200922035016 54 162 0.0 0.0 0.00 0.00 0.00 95 1023.5
20200922034530 54 60 0.0 0.0 0.00 0.00 0.00 94 1023.4
20200922034014 54 60 0.0 0.0 0.00 0.00 0.00 94 1023.3
20200922033513 54 60 0.0 0.0 0.00 0.00 0.00 94 1023.2
20200922033016 54 60 0.0 0.0 0.00 0.00 0.00 94 1023.3
20200922032510 54 60 0.0 0.0 0.00 0.00 0.00 93 1023.2
20200922032010 54 60 0.0 0.0 0.00 0.00 0.00 93 1023.2
20200922031511 54 60 0.0 0.0 0.00 0.00 0.00 92 1023.3
20200922031013 54 60 0.0 0.0 0.00 0.00 0.00 92 1023.4
20200922030510 55 60 0.0 0.0 0.00 0.00 0.00 92 1023.4
20200922030018 55 60 0.0 0.0 0.00 0.00 0.00 92 1023.4
20200922025510 55 60 0.0 0.0 0.00 0.00 0.00 92 1023.4
20200922025010 55 60 0.0 0.0 0.00 0.00 0.00 91 1023.3
20200922024512 55 60 0.0 0.0 0.00 0.00 0.00 91 1023.2
20200922024009 56 60 0.0 0.0 0.00 0.00 0.00 91 1023.3
20200922023509 56 60 0.0 0.0 0.00 0.00 0.00 91 1023.2
20200922023018 56 60 0.0 0.0 0.00 0.00 0.00 91 1023.2
20200922022459 56 60 0.0 0.0 0.00 0.00 0.00 90 1023.1
20200922021957 56 60 0.0 0.0 0.00 0.00 0.00 90 1023.2
20200922021459 56 60 0.0 0.0 0.00 0.00 0.00 90 1023.1
20200922020958 56 60 0.0 0.0 0.00 0.00 0.00 89 1023.1
20200922020452 57 60 0.0 0.0 0.00 0.00 0.00 89 1023.1
20200922015952 57 60 0.0 0.0 0.00 0.00 0.00 89 1023.1
20200922015448 57 60 0.0 0.0 0.00 0.00 0.00 88 1023.2
20200922014946 57 60 0.0 0.0 0.00 0.00 0.00 87 1023.2
20200922014446 58 60 0.0 0.0 0.00 0.00 0.00 86 1023.2
20200922013940 58 60 0.0 0.0 0.00 0.00 0.00 86 1023.2
20200922013441 58 60 0.0 0.0 0.00 0.00 0.00 86 1023.1
20200922012937 58 60 0.0 0.0 0.00 0.00 0.00 85 1023.1
20200922012438 58 60 0.0 0.0 0.00 0.00 0.00 84 1023.1
20200922011934 59 60 0.0 0.0 0.00 0.00 0.00 83 1023.0
20200922011434 59 60 0.0 0.0 0.00 0.00 0.00 82 1023.0
20200922010930 59 60 0.0 0.0 0.00 0.00 0.00 81 1022.9
20200922010429 60 60 0.0 0.0 0.00 0.00 0.00 80 1022.9
20200922005928 60 60 0.0 0.0 0.00 0.00 0.00 79 1022.9
20200922005428 60 60 0.0 0.0 0.00 0.00 0.00 78 1022.8
20200922004928 61 60 0.0 0.0 0.00 0.00 0.00 77 1022.8
20200922004426 61 60 0.0 0.0 0.00 0.00 0.00 76 1022.8
20200922003926 62 60 0.0 0.0 0.00 0.00 0.00 75 1022.7
20200922003426 62 60 0.0 0.0 0.00 0.00 0.00 74 1022.7
20200922002925 62 60 0.0 0.0 0.00 0.00 0.00 74 1022.6
20200922002424 63 60 0.0 0.0 0.00 0.00 0.00 73 1022.7
20200922001923 63 60 0.0 0.0 0.00 0.00 0.00 72 1022.7
20200922001417 64 60 0.0 0.0 0.00 0.00 0.00 72 1022.7
20200922000915 64 60 0.0 0.0 0.00 0.00 0.00 72 1022.7
20200922000412 65 60 0.0 0.0 0.00 0.00 0.00 67 1022.7
20200921235910 65 60 0.0 0.0 0.00 0.00 0.00 66 1022.8
20200921235411 66 60 0.0 0.0 0.00 0.00 0.00 65 1022.8
20200921234910 67 60 0.0 0.0 0.00 0.00 0.00 62 1022.7
20200921234407 67 60 0.0 0.0 0.00 0.00 0.00 61 1022.7
20200921233908 68 60 0.0 0.0 0.00 0.00 0.00 59 1022.6
20200921233408 69 60 0.0 0.0 0.00 0.00 0.00 57 1022.6
20200921232904 70 60 0.0 0.0 0.00 0.00 0.00 55 1022.5
20200921232405 71 60 0.0 0.0 0.00 0.00 0.00 54 1022.5
20200921231858 71 60 0.0 0.0 0.00 0.00 0.00 53 1022.4
20200921231356 71 60 0.0 0.0 0.00 0.00 0.00 51 1022.4
20200921230856 71 60 0.0 0.9 0.00 0.00 0.00 52 1022.4
20200921230352 71 59 0.0 0.9 0.00 0.00 0.00 51 1022.4
20200921225853 72 102 0.0 1.7 0.00 0.00 0.00 51 1022.3
20200921225345 72 105 0.0 1.7 0.00 0.00 0.00 51 1022.3
20200921224843 72 165 0.0 5.2 0.00 0.00 0.00 50 1022.2
20200921224352 72 115 0.0 5.2 0.00 0.00 0.00 49 1022.2
20200921223841 72 55 0.0 1.7 0.00 0.00 0.00 49 1022.3
20200921223343 73 124 0.0 0.9 0.00 0.00 0.00 50 1022.3
20200921222834 73 155 0.0 0.9 0.00 0.00 0.00 51 1022.3
20200921222333 73 155 0.0 6.1 0.00 0.00 0.00 46 1022.3
20200921221830 73 136 0.0 6.1 0.00 0.00 0.00 46 1022.4
20200921221328 74 231 0.0 3.5 0.00 0.00 0.00 44 1022.4
20200921220828 74 97 0.0 3.5 0.00 0.00 0.00 43 1022.4
20200921220327 74 184 0.0 1.7 0.00 0.00 0.00 43 1022.4
20200921215825 74 184 0.9 5.2 0.00 0.00 0.00 43 1022.4
20200921215324 74 210 1.7 6.1 0.00 0.00 0.00 44 1022.3
20200921214826 74 201 1.7 6.1 0.00 0.00 0.00 41 1022.3
20200921214322 75 80 2.6 7.8 0.00 0.00 0.00 41 1022.3
20200921213824 75 38 2.6 7.8 0.00 0.00 0.00 42 1022.3
20200921213317 75 56 1.7 7.0 0.00 0.00 0.00 44 1022.4
20200921212813 75 113 2.6 7.0 0.00 0.00 0.00 43 1022.5
20200921212312 75 83 1.7 8.7 0.00 0.00 0.00 42 1022.5
20200921211810 75 120 0.9 8.7 0.00 0.00 0.00 44 1022.5
20200921211311 75 94 0.0 4.3 0.00 0.00 0.00 43 1022.5
20200921210808 75 173 0.9 5.2 0.00 0.00 0.00 44 1022.5
20200921210306 75 79 1.7 6.1 0.00 0.00 0.00 43 1022.5